[Iaude] MPEC U288: COMET C/2023 U1 (Fuls)

mpec at marsden.cfa.harvard.edu mpec at marsden.cfa.harvard.edu
Mon Oct 30 18:06:49 EDT 2023


M.P.E.C. 2023-U288                             Issued 2023 October 30, 22:03 UT

     The Minor Planet Electronic Circulars contain information on unusual
         minor planets, routine data on comets and natural satellites,
         and occasional editorial announcements.  They are published
    on behalf of Division F of the International Astronomical Union by the
          Minor Planet Center, Smithsonian Astrophysical Observatory,
                          Cambridge, MA 02138, U.S.A.
			  
             Prepared using the Tamkin Foundation Computer Network

                              MPC at CFA.HARVARD.EDU
            URL https://www.minorplanetcenter.net/    ISSN 1523-6714

                             COMET C/2023 U1 (Fuls)                             

     D. Fuls reports the discovery of a comet in survey images taken by
Mt. Lemmon Survey (G96) on Oct. 16 UT, noting a condensed 8".8 coma and
a broad 6".4 tail at position angle 345 deg. H. Sato reports a very
condensed 10" coma observed on Oct. 16 UT in 12-stacked 60-seccond exposures
from iTelescope Observatory (Q62).

Observations:
    CK23U010*1C2023 10 16.47712608 01 38.669-11 46 03.18         19.34GVEU288G96
    CK23U010 1C2023 10 16.48186308 01 38.629-11 46 06.38         19.16GVEU288G96
    CK23U010 1C2023 10 16.48662708 01 38.593-11 46 09.19         19.48GVEU288G96
    CK23U010 1C2023 10 16.49137108 01 38.561-11 46 12.47         19.38GVEU288G96
    CK23U010 1C2023 10 16.51422108 01 38.410-11 46 26.90         19.61GVEU288G96
    CK23U010 1C2023 10 16.51498408 01 38.400-11 46 27.30         19.59GVEU288G96
    CK23U010 1C2023 10 16.51575108 01 38.390-11 46 27.80         19.70GVEU288G96
    CK23U010 1C2023 10 16.51651308 01 38.390-11 46 28.50         19.54GVEU288G96
    CK23U010 1C2023 10 16.74522 08 01 37.01 -11 48 52.5                VEU288Q62
    CK23U010 1C2023 10 16.75019 08 01 36.98 -11 48 55.8          19.5 GVEU288Q62
    CK23U010  C2023 10 18.46508908 01 24.913-12 07 12.32         19.60GVEU288I52
    CK23U010  C2023 10 18.47731208 01 24.805-12 07 19.88         19.77GVEU288I52
    CK23U010  C2023 10 18.48818008 01 24.704-12 07 26.26         19.38GVEU288I52
    CK23U010  C2023 10 18.50312308 01 24.611-12 07 36.44         19.76GVEU288I52
    CK23U010 KC2023 10 18.55009 08 01 24.18 -12 08 01.8          19.1 RqEU288E94
    CK23U010 KC2023 10 18.56536 08 01 24.13 -12 08 14.2          19.1 RqEU288E94
    CK23U010 KC2023 10 18.58081 08 01 24.04 -12 08 23.5          19.1 RqEU288E94
    CK23U010 KC2023 10 18.59605 08 01 23.92 -12 08 34.0          19.1 RqEU288E94
    CK23U010 2C2023 10 21.23140 08 01 00.677-12 36 54.11         18.8 GVEU288G40
    CK23U010 2C2023 10 21.24525 08 01 00.468-12 37 03.58         19.5 GVEU288G40
    CK23U010 KB2023 10 23.10282 08 00 40.853-12 57 11.48         19.3 GXEU288K74
    CK23U010 KB2023 10 23.11544 08 00 40.699-12 57 19.84         19.9 GXEU288K74
    CK23U010 KB2023 10 23.12806 08 00 40.562-12 57 27.29         19.4 GXEU288K74
    CK23U010 KB2023 10 23.14067 08 00 40.378-12 57 35.57         19.5 GXEU288K74
    CK23U010 KB2023 10 29.90688 07 59 04.297-14 11 58.61         19.6  VEU288N51
    CK23U010 KB2023 10 29.91172 07 59 04.208-14 12 01.24         19.6  VEU288N51

Observer details:
E94 Possum Observatory, Gisborne.  Observer J. Drummond.  0.41-m f/4.5
    Newtonian + CCD.
G40 Slooh.com Canary Islands Observatory.  Observer N. Paul.  0.5-m f/6.8
    Corrected Dall-KIrkham + CCD.
G96 Mt. Lemmon Survey.  Observer D. C. Fuls.  Measurers E. C. Beshore, D. Fay,
    J. B. Fazekas, D. C. Fuls, A. R. Gibbs, A. D. Grauer, H. Groeller, J. K.
    Hogan, R. A. Kowalski, S. M. Larson, G. J. Leonard, D. Rankin, R. L.
    Seaman, F. C. Shelly, K. W. Wierzchos.  1.5-m reflector + 10K CCD.
I52 Steward Observatory, Mt. Lemmon Station.  Observer G. J. Leonard.
    Measurers E. C. Beshore, D. Fay, J. B. Fazekas, D. C. Fuls, A. R. Gibbs,
    A. D. Grauer, H. Groeller, J. K. Hogan, R. A. Kowalski, S. M. Larson, G.
    J. Leonard, D. Rankin, R. L. Seaman, F. C. Shelly, K. W. Wierzchos.  1.0-m
    prime focus + CCD.
K74 Muensterschwarzach Observatory, Schwarzach.  Observer C. Gerhard.  0.20-m
    f/1.5 Schmidt + CMO.
N51 GROWTH India Telescope, IAO, Hanle.  Observers Y. Wagh, R. Kumar, R.
    Sharma, V. Swain, K. Angail, V. Bhalerao, G. C. Anupama, S. Barway.
    Measurer Y. Wagh.  0.70-m f/6.5 Corrected Dall-Kirkham + CCD.
Q62 iTelescope Observatory, Siding Spring.  Observer H. Sato.  0.51-m f/6.8
    astrograph + CCD + f/4.5 focal reducer.

Orbital elements:
    C/2023 U1 (Fuls)                                                            
Epoch 2023 Sept. 13.0 TT = JDT 2460200.5                                        
T 2024 Oct. 13.22729 TT                                 Rudenko                 
q   4.9559442            (2000.0)            P               Q                  
z  -0.0062098      Peri.  256.08423     +0.10465446     +0.62954471             
 +/-0.0045740      Node   305.86652     +0.70850510     -0.59045035             
e   1.0307752      Incl.  108.19063     -0.69790255     -0.50501667             
>From 26 observations 2023 Oct. 16-29, mean residual 0".2.                       
                                                                                
Ephemeris:
Date    TT    R. A. (2000) Decl.     Delta      r    Elong.  Phase   m1    m2
2023 09 30    08 01 46.6 -08 58 48   6.1080  5.7604    65.2     9.1  19.5
...
2023 10 15    08 01 46.9 -11 30 27   5.8325  5.7034    77.7     9.8  19.4
...
2023 10 23    08 00 42.0 -12 56 02   5.6830  5.6737    84.4    10.1  19.3
...
2023 10 29    07 59 19.4 -14 01 53   5.5717  5.6516    89.5    10.1  19.3
2023 10 30    07 59 02.7 -14 12 59   5.5533  5.6480    90.4    10.1  19.2
2023 10 31    07 58 45.0 -14 24 06   5.5349  5.6443    91.2    10.1  19.2
...
2023 11 06    07 56 40.4 -15 31 16   5.4265  5.6227    96.3    10.1  19.2
...
2023 11 14    07 53 01.2 -17 01 25   5.2874  5.5942   103.0     9.9  19.1
...
2023 11 29    07 43 18.2 -19 47 17   5.0532  5.5421   115.0     9.3  19.0

M. P. C. Staff               (C) Copyright 2023 MPC           M.P.E.C. 2023-U288





More information about the Iaude mailing list